This is the latest recevied weather packets stored in our database for station/object N3HBJ. If no packets are shown the sender has not sent any weather packets the latest 10 day(s).
| Time | Temp. | Humidity | Pressure | Rain* | Wind** | Luminosity | Snow |
|---|---|---|---|---|---|---|---|
| 1777429605 | 10.56° C | 88% | 1015.7 hPa | 0 mm | - | 0 W/m² | - |
| 1777426412 | 10° C | 88% | 1016.2 hPa | 0 mm | - | 0 W/m² | - |
| 1777425372 | 10° C | 88% | 1016.2 hPa | 0 mm | - | 0 W/m² | - |
| 1777422662 | 10° C | 88% | 1015.7 hPa | 0 mm | - | 0 W/m² | - |
| 1777421454 | 10° C | 88% | 1015.2 hPa | 0 mm | - | 0 W/m² | - |
| 1777420863 | 10.56° C | 87% | 1015.1 hPa | 0 mm | - | 0 W/m² | - |
| 1777418885 | 10.56° C | 86% | 1015.7 hPa | 0 mm | - | 7 W/m² | - |
| 1777418143 | 10.56° C | 86% | 1015.7 hPa | 0 mm | - | 18 W/m² | - |
| 1777417245 | 10.56° C | 86% | 1015.9 hPa | 0 mm | - | 39 W/m² | - |
| 1777416638 | 10.56° C | 86% | 1015.8 hPa | 0 mm | - | 54 W/m² | - |
| 1777416041 | 10.56° C | 86% | 1016 hPa | 0 mm | - | 40 W/m² | - |
| 1777415741 | 10.56° C | 85% | 1016 hPa | 0 mm | - | 44 W/m² | - |
| 1777414523 | 10.56° C | 86% | 1016.1 hPa | 0 mm | - | 37 W/m² | - |
| 1777412868 | 10.56° C | 87% | 1016 hPa | 0 mm | - | 120 W/m² | - |
| 1777412120 | 10° C | 88% | 1016 hPa | 0 mm | - | 79 W/m² | - |
| 1777410617 | 10° C | 87% | 1016.1 hPa | 0 mm | - | 74 W/m² | - |
| 1777409117 | 10.56° C | 85% | 1016 hPa | 0 mm | - | 70 W/m² | - |
| 1777408815 | 10.56° C | 85% | 1016 hPa | 0 mm | - | 81 W/m² | - |
| 1777408514 | 10.56° C | 85% | 1016 hPa | 0 mm | - | 84 W/m² | - |
| 1777407916 | 10.56° C | 84% | 1016 hPa | 0 mm | - | 90 W/m² | - |
| 1777405816 | 10.56° C | 84% | 1016.2 hPa | 0 mm | - | 135 W/m² | - |
| 1777403407 | 10.56° C | 83% | 1016.3 hPa | 0 mm | - | 128 W/m² | - |
| 1777403107 | 10.56° C | 83% | 1016.3 hPa | 0 mm | - | 132 W/m² | - |
| 1777401905 | 10.56° C | 83% | 1016.5 hPa | 0 mm | - | 118 W/m² | - |
| 1777401604 | 10.56° C | 82% | 1016.5 hPa | 0 mm | - | 104 W/m² | - |
* Rain latest hour (hover to see other rain measurements)
** Current wind speed in m/s (hover to see current wind gust speed)